Tracking 30995 objects as of 5-Jul-2025
HD Live streaming from Space Station
objects crossing your sky now

BLOCK DM-SL R/B

Track BLOCK DM-SL R/B now!


NORAD ID: 28900
Int'l Code: 2005-044B
Perigee: 296.2 km
Apogee: 30,962.1 km
Inclination: 3.0 °
Period: 541.3 minutes
Semi major axis: 22000 km
RCS: 18.3139 m2 (large)
Launch date: November 8, 2005
Source: Sea Launch (SEAL)
Launch site: SEA LAUNCH (SEAL)

Note: This is a ROCKET BODY
Your satellite tracking list
Your tracking list is empty




NASA's NSSDC Master Catalog

Two Line Element Set (TLE):
1 28900U 05044B   25186.33428126  .00001082  00000-0  44973-3 0  9994
2 28900   2.9851 285.7470 6969486  60.4992 350.8650  2.66050764175250
Source of the keplerian elements: AFSPC